Oxnard, CA

9:35 AM PST on February 14, 2016 (GMT -0800)
Oxnard

Weather History for KOXR - February, 2013

Change the Weather History Date:

Monday, February 25, 2013

  Actual Average Record
Temperature  
Mean Temperature 52 °F -  
Max Temperature 61 °F 67 °F 83 °F (1986)
Min Temperature 44 °F 46 °F 36 °F (1955)
Degree Days  
Heating Degree Days 12    
Growing Degree Days 2 (Base 50)    
Moisture  
Dew Point 30 °F    
Average Humidity 48    
Maximum Humidity 86    
Minimum Humidity 16    
Precipitation  
Precipitation 0.00 in - - ()
Sea Level Pressure  
Sea Level Pressure 30.16 in    
Wind  
Wind Speed 5 mph (NE)    
Max Wind Speed 12 mph    
Max Gust Speed -    
Visibility 10 miles    
Events      
Averages and records for this station are not official NWS values.
T = Trace of Precipitation, MM = Missing Value Source: NWS Daily Summary

Daily Weather History Graph

Daily Weather History Graph

Search for Another Location

Airport or City:

Trip Planner

Search our weather history database for the weather conditions in past years. The results will help you decide how hot, cold, wet, or windy it might be!

Date:

Astronomy

Feb. 25, 2013 Rise Set
Actual Time 6:30 AM PST 5:49 PM PST
Civil Twilight 6:04 AM PST 6:15 PM PST
Nautical Twilight 5:35 AM PST 6:44 PM PST
Astronomical Twilight 5:06 AM PST 7:13 PM PST
Moon 6:05 PM PST (2/25) 6:04 AM PST (2/25)
Length of Visible Light 12h 10m
Length of Day
11h 19m
Full, 100% of the Moon is Illuminated
Feb 25
Full
Feb 25
Full
Mar 4
Last Quarter
Mar 11
New
Mar 19
First Quarter

Hourly Weather History & Observations

Time (PST) Temp. Windchill Dew Point Humidity Pressure Visibility Wind Dir Wind Speed Gust Speed Precip Events Conditions
12:51 AM 48.0 °F - 21.0 °F 34% 30.22 in 10.0 mi Calm Calm - N/A   Clear
1:51 AM 45.0 °F - 21.9 °F 40% 30.22 in 10.0 mi Calm Calm - N/A   Clear
2:51 AM 44.1 °F 39.5 °F 19.0 °F 37% 30.20 in 10.0 mi ENE 8.1 mph - N/A   Clear
3:51 AM 45.0 °F 42.6 °F 18.0 °F 34% 30.20 in 10.0 mi NE 4.6 mph - N/A   Clear
4:51 AM 48.0 °F - 12.9 °F 24% 30.20 in 10.0 mi NE 10.4 mph - N/A   Clear
5:51 AM 46.9 °F - 12.9 °F 25% 30.20 in 10.0 mi NE 10.4 mph - N/A   Clear
6:51 AM 46.9 °F - 12.9 °F 25% 30.21 in 10.0 mi NE 9.2 mph - N/A   Clear
7:51 AM 51.1 °F - 15.1 °F 24% 30.22 in 10.0 mi NE 9.2 mph - N/A   Clear
8:51 AM 55.9 °F - 17.1 °F 22% 30.22 in 10.0 mi Variable 3.5 mph - N/A   Clear
9:51 AM 60.1 °F - 12.9 °F 16% 30.20 in 10.0 mi South 4.6 mph - N/A   Clear
10:51 AM 60.1 °F - 26.1 °F 27% 30.21 in 10.0 mi SW 8.1 mph - N/A   Clear
11:51 AM 61.0 °F - 28.0 °F 29% 30.18 in 10.0 mi WSW 6.9 mph - N/A   Clear
12:51 PM 61.0 °F - 34.0 °F 36% 30.16 in 10.0 mi WSW 6.9 mph - N/A   Clear
1:51 PM 61.0 °F - 37.9 °F 42% 30.14 in 10.0 mi WSW 9.2 mph - N/A   Clear
2:51 PM 60.1 °F - 37.0 °F 42% 30.13 in 10.0 mi WSW 11.5 mph - N/A   Clear
3:51 PM 57.9 °F - 43.0 °F 58% 30.12 in 10.0 mi WSW 9.2 mph - N/A   Clear
4:51 PM 55.9 °F - 45.0 °F 67% 30.09 in 10.0 mi WSW 6.9 mph - N/A   Clear
5:51 PM 53.1 °F - 46.9 °F 80% 30.08 in 9.0 mi WSW 4.6 mph - N/A   Clear
6:51 PM 52.0 °F - 46.9 °F 83% 30.09 in 9.0 mi Calm Calm - N/A   Clear
7:51 PM 51.1 °F - 46.0 °F 83% 30.09 in 10.0 mi East 3.5 mph - N/A   Clear
8:51 PM 48.9 °F - 45.0 °F 86% 30.09 in 10.0 mi NE 4.6 mph - N/A   Clear
9:51 PM 46.9 °F - 41.0 °F 80% 30.10 in 10.0 mi Calm Calm - N/A   Clear
10:51 PM 46.0 °F 44.8 °F 39.0 °F 76% 30.10 in 10.0 mi ENE 3.5 mph - N/A   Clear
11:51 PM 45.0 °F 42.6 °F 36.0 °F 71% 30.09 in 10.0 mi ENE 4.6 mph - N/A   Clear